Location: Gleizolles
(44.4833°N, 6.7667°E)
Time: 11:39:58
(UTC+00:00)

A-11 Canister half - Pass Details

Date: 22 June 2024
Orbit: 1515 x 1685 km, 47.2° (Epoch: 14 July)

Event Time Altitude Azimuth Distance (km) Brightness Sun altitude
Rises 21:07:03 0° 283° (WNW) 4,909 12.4 -14.1°
Reaches altitude 10° 21:10:14 10° 285° (WNW) 3,905 11.8 -14.4°
Maximum altitude 21:20:17 83° 14° (NNE) 1,629 9.1 -15.4°
Drops below altitude 10° 21:29:55 10° 103° (ESE) 3,765 10.7 -16.3°
Enters shadow 21:31:41 - 104° (ESE) 4,323 11.0 -16.5°
